Location: Prairie State College
(41.5244°N, 87.6382°W)
Time: 14:21:37
(UTC-05:00)

Cosmos 1140 Rocket - Visible Passes

Search period start: 27 May 2018 00:00
Search period end: 06 June 2018 00:00
Orbit: 745 x 767 km, 74.1° (Epoch: 26 May)

Date Brightness Start Highest point End Pass type
(mag) Time Alt. Az. Time Alt. Az. Time Alt. Az.
28 May 5.4 04:33:08 10° SSE 04:37:30 28° E 04:41:52 10° NE visible
29 May 6.0 03:54:20 10° SE 03:57:13 15° E 04:00:06 10° ENE visible
31 May 4.8 04:12:37 10° SSE 04:17:21 37° ESE 04:22:05 10° NE visible
01 Jun 5.7 03:33:17 10° SE 03:37:00 20° E 03:40:43 10° NE visible
02 Jun 6.2 02:56:07 10° E 02:56:47 10° E 02:57:27 10° E visible
02 Jun 3.5 04:32:35 10° SSW 04:37:45 87° WNW 04:42:56 10° NNE visible
03 Jun 4.2 03:52:15 10° S 03:57:13 50° ESE 04:02:12 10° NNE visible
04 Jun 5.1 03:12:32 10° SSE 03:16:49 27° E 03:21:06 10° NE visible
05 Jun 5.8 02:33:51 10° SE 02:36:33 14° E 02:39:14 10° ENE visible
05 Jun 3.6 04:13:00 12° SSW 04:17:43 66° WNW 04:22:51 10° NNE visible
